Weather Roundup
Issued by NWS Corpus Christi, TX

Home | Current Version | Previous Version | Text Only | Print | Product List | Glossary On
Versions: 1 2 3 4 5 6 7 8 9 10 11 12 13 14 15 16 17 18 19 20 21 22 23 24 25 26 27 28 29 30 31 32 33 34 35 36 37 38 39 40 41 42 43 44 45 46 47 48 49 50
241
ASUS44 KCRP 262110
HRRCRP

SOUTH TEXAS REGIONAL WEATHER ROUNDUP
NATIONAL WEATHER SERVICE CORPUS CHRISTI TX
400 PM CDT TUE JUL 26 2016


TXZ229>244-262200-
...CORPUS CHRISTI AREA OBSERVATIONS...

CITY           SKY/WX    TMP DP  RH WIND       PRES   REMARKS
CORPUS CHRISTI CLOUDY    89  76  65 SE17      29.86F THUNDER HX 100
NAS CORPUS CHR CLOUDY    87  78  74 SE15G22   29.88F HX 100
ROCKPORT       CLOUDY    84  77  79 SE13      29.88F HX  94
KINGSVILLE NAS CLOUDY    92  78  63 SE17G26   29.84F HX 107
ALICE          CLOUDY    88  73  61 NE10G18   29.85R THUNDER HX  95
FALFURRIAS     CLOUDY   100  60  26 SE8       29.81S HX 100
$$

...VICTORIA AREA OBSERVATIONS...

CITY           SKY/WX    TMP DP  RH WIND       PRES   REMARKS
VICTORIA       LGT RAIN  81  75  82 N5        29.91F
BEEVILLE       FAIR      71  71 100 E6        29.90S
PLEASANTON     DRIZZLE   79  74  83 CALM      29.92S
SAN ANTONIO    CLOUDY    80  72  76 SE13      29.94F
$$

...LAREDO AREA OBSERVATIONS...

CITY           SKY/WX    TMP DP  RH WIND       PRES   REMARKS
LAREDO         CLOUDY    77  72  84 W14       29.88F
COTULLA        CLOUDY    89  70  53 E9        29.87F HX  94
DEL RIO        LGT RAIN  81  70  69 E12       29.89F
MCALLEN        PTSUNNY   99  71  40 SE18      29.80F HX 107
HEBBRONVILLE   HVY RAIN  86  71  60 NE18      29.88R HX  91
$$

...OTHER TEXAS OBSERVATIONS...

CITY           SKY/WX    TMP DP  RH WIND       PRES   REMARKS
BROWNSVILLE    MOSUNNY   92  74  55 SE24G31   29.85F HX 101
HOUSTON        CLOUDY    84  75  74 S8        29.91F THUNDER HX  92
COL. STATION   MOSUNNY   94  71  47 SE8       29.88F HX 101
AUSTIN         TSTM      76  75  97 SE21G29   29.92R FOG
WACO           SUNNY     95  69  42 E8        29.88F HX 100
FORT WORTH     PTSUNNY   97  67  37 E6        29.87F HX 101
WICHITA FALLS  PTSUNNY   96  69  41 E5        29.90F HX 102
LUBBOCK        MOSUNNY   95  58  28 E8        30.01F HX  94
EL PASO        MOSUNNY   96  51  21 S7        30.02F HX  93
$$

...MARINE OBSERVATIONS...

STATION/POSITION TIME  SKY/WX   TEMP    WIND        PRES    VSBY  WAVE   SWELL
                                AIR SEA DIR/SP/G                  HT/PER HT/PER
                 (UTC)          (F)     (DEG/KT/KT) (MB)    (MI)  (FT/S) (FT/S)
PORT ARANSAS     2100            82 87  100/ 15/ 16 1011.9F
BUOY 90 E PORT A 2050            82 84  110/  4/  6 1013.1F         3/ 6   3/ 6
BUOY 45 SE BAFFI 2050            85 85  160/ 16/ 17 1011.3F         3/ 6   2/10
BUOY 200 E PT IS 2050            85 86  120/  8/ 12 1014.3F         3/ 6   3/ 6
BUOY 15 E GALVES 2050            79 87  240/ 19/ 23 1012.8F         4/ 5
$$




USA.gov is the U.S. government's official web portal to all federal, state and local government web resources and services.